カタログに戻る

STARLINK-2644

運用中通信VLEO
NORAD 48442·PAYLOAD·🇺🇸 United States

打ち上げ May 9, 2021 から Cape Canaveral Space Force Station

Loading…

次のパス (今後24時間)

TLE

最新Source: CelesTrak SupGP

元期: Sep 14, 2026, 14:21 UTC

1 48442C 21040Q   26257.59840278  .00096174  00000+0  59718-3 0  2570
2 48442  53.1555 357.4513 0006632 347.0708  94.4677 15.76236010    11

AllMySatでSTARLINK-2644をリアルタイム追跡

Download on the App Store